SDO

Last updated on Fri Dec 19 2025 00:02:49 GMT+0000 (Coordinated Universal Time)

1 36395U 10005A 25352.26020594 -.00000079 00000+0 00000+0 0 9992 2 36395 34.2723 89.1032 0001068 154.7257 194.9364 1.00270082 58243
UTC large
Height (km)
Speed (km/s)
/
Latitude / Longitude
Inclination (degrees)
Orbital Period (minutes)
Azimuth
Elevation
Range (km)
Doppler Factor

Next 0 passes for location: London (51.5072 / 0.1276)

Sorry there are no passes over London.